Погода в Турове

Россия / Псковская область     56°58′45″N   29°39′15″E
темп.,
°C
ветер,
м/с
пор.,
м/с
влажн.,
%
обл.,
%
осадки,
мм/ч
давл.,
гПа
погр.,
м
18 апреля, вс
вс1800:00+8св3108357 0.0 1023310
03:00+6св398173 0.0 1024229
06:00+5св3108065 0.0 1024243
09:00+9всв59625 0.0 1024475
12:00+13св58480 0.0 10241211
15:00+14св67415 0.0 10231749
18:00+13св47465 0.0 10231673
21:00+8св3106871 0.0 1024238
19 апреля, пн
пн1900:00+6всв397134 0.0 1026274
03:00+4св27855 0.0 1026194
06:00+3всв26915 0.0 1026150
09:00+7всв36755 0.0 1026532
12:00+11всв455859 0.0 10261438
15:00+10св4560100 0.0 10261309
18:00+9всв4769100 0.0 1025661
21:00+7в3774100 0.0 1026513
20 апреля, вт
вт2000:00+6всв3876100 0.0 1025384
03:00+5всв2777100 0.0 1024273
06:00+5всв2678100 0.0 1023303
09:00+6в357191 0.1 1022904
12:00+8всв355696 0.2 10201537
15:00+9всв4543100 0.2 10181840
18:00+8в4564100 0.1 10171080
21:00+5в358198 0.3 1016722
21 апреля, ср
ср2100:00+2св249042 0.0 1014123
03:00+2с2590100 0.0 1011231
06:00+3ссз3790100 0.0 1009439
09:00+4с3797100 0.8 1005810
12:00+3сз3697100 2.2 1004608
15:00+3сз3897100 4.1 1004694
18:00+4зсз41094100 0.8 1005770
21:00+4з3894100 1.4 1006842
22 апреля, чт
чт2200:00+4зюз3891100 0.4 1007272
03:00+3зюз3890100 0.4 1009194
06:00+2юз36925 0.0 1011132
09:00+7зюз35675 0.0 1012338
12:00+12зюз254865 0.0 10141781
15:00+12ю2449100 0.0 10141432
18:00+13юв24515 0.0 10141262
21:00+7ююв348080 0.0 101563